Regional Weather Roundup
Issued by NWS San Angelo, TX

Home | Current Version | Previous Version | Text Only | Print | Product List | Glossary On
Versions: 1 2 3 4 5 6 7 8 9 10 11 12 13 14 15 16 17 18 19 20 21 22 23 24 25 26 27 28 29 30 31 32 33 34 35 36 37 38 39 40 41 42 43 44 45 46 47 48 49 50
000
ASUS44 KSJT 252202
RWRSJT
WEST CENTRAL TEXAS REGIONAL WEATHER ROUNDUP
NATIONAL WEATHER SERVICE SAN ANGELO TX
500 PM CDT THU AUG 25 2016

NOTE: "FAIR" INDICATES FEW OR NO CLOUDS BELOW 12,000 FEET WITH NO
SIGNIFICANT WEATHER AND/OR OBSTRUCTIONS TO VISIBILITY.

TXZ049-054-064>066-071>073-076>078-098-099-113-114-127-128-139-140-
154-155-168>170-252300
...LOCATIONS ACROSS WEST CENTRAL TEXAS...

CITY           SKY/WX    TMP DP  RH WIND       PRES   REMARKS
SAN ANGELO     SUNNY     95  49  20 S7        30.00F
ABILENE        SUNNY     92  59  33 SE15      30.02F
DYESS AFB      SUNNY     95  59  29 SE6G17    29.99F
JUNCTION       SUNNY     93  56  28 S8        30.01F
SWEETWATER     SUNNY     92  56  29 SE13G21   30.05F
BROWNWOOD      LGT RAIN  91  59  33 S5        30.01F
COLEMAN        CLEAR     94  54  26 SE6       30.01F
SONORA         SUNNY     91  52  25 S13       30.06F
OZONA          NOT AVBL
BRADY          NOT AVBL
$$

TEXAS PANHANDLE/OKLAHOMA PANHANDLE

CITY           SKY/WX    TMP DP  RH WIND       PRES   REMARKS
AMARILLO       MOSUNNY   80  61  52 E22G29    30.10F
BORGER         PTSUNNY   81  62  52 NE14      30.10F
CANADIAN       CLOUDY    76  66  71 NE6       30.09S
DALHART        MOSUNNY   77  57  50 E7        30.14F
DUMAS          MOCLDY    77  60  55 E9        30.13F
GUYMON         NOT AVBL
HEREFORD       CLOUDY    84  60  44 E6        30.10F
PAMPA          NOT AVBL
PERRYTON       NOT AVBL
$$

SOUTHERN PANHANDLE/SOUTH PLAINS/ROLLING PLAINS

CITY           SKY/WX    TMP DP  RH WIND       PRES   REMARKS
LUBBOCK        CLOUDY    78  66  66 SE12      30.09S
SNYDER           N/A     91  58  32 S14G20    30.02F
CHILDRESS      PTSUNNY   79  64  60 N16       30.03R
SEMINOLE       PTCLDY    80  61  52 NE15      30.07F
$$

PERMIAN BASIN

CITY           SKY/WX    TMP DP  RH WIND       PRES   REMARKS
MIDLAND        CLOUDY    91  57  31 S12       30.02F
ODESSA         TSTM      82  63  52 W7        30.04S
WINK           MOSUNNY   82  67  60 W10       30.02F
$$

FAR WEST/SOUTHWEST MOUNTAINS/TRANS PECOS

CITY           SKY/WX    TMP DP  RH WIND       PRES   REMARKS
ALPINE         CLOUDY    79  57  46 SW6       30.19F
DRYDEN           N/A     92  57  30 E15G23    29.99F
EL PASO        PTSUNNY   88  51  28 E3        30.05F
FORT STOCKTON  CLOUDY    82  59  45 SE18G25   30.03F
GUADALUPE PASS LGT RAIN  67  58  72 E20       30.21F
MARFA          CLOUDY   N/A N/A N/A SE6       30.18F
PECOS          MOCLDY    77  68  73 W12       30.04F
$$

DALLAS/FORT WORTH METROPLEX

CITY           SKY/WX    TMP DP  RH WIND       PRES   REMARKS
DFW AIRPORT    MOSUNNY   95  62  33 VRB7      29.97F
FTW MEACHAM    SUNNY     96  63  33 SE8       29.97F
DAL-EXECUTIVE  MOSUNNY   92  71  50 VRB3      29.98F
GRAND PRAIRIE  SUNNY     93  63  36 SE6       30.00F
ADDISON        MOSUNNY   93  66  40 S7        29.99F
MESQUITE       PTCLDY    91  70  49 SE8       29.99F
LANCASTER      CLEAR     94  68  42 SE6       29.99F
$$

NORTH CENTRAL TEXAS

CITY           SKY/WX    TMP DP  RH WIND       PRES   REMARKS
SHRMAN/DENISON NOT AVBL
GAINESVILLE      N/A     90  67  47 SE6       30.00F
BRIDGEPORT     CLEAR     90  68  47 SE3       30.00F
DENTON         SUNNY     93  65  39 SE9       29.97F
WAXAHACHIE     PTCLDY    92  70  49 S6        30.00F
GRANBURY       NOT AVBL
$$

WESTERN NORTH TEXAS

CITY           SKY/WX    TMP DP  RH WIND       PRES   REMARKS
WICHITA FALLS  MOSUNNY   95  64  35 SE15G23   29.96F
VERNON         PTCLDY    96  52  22 S10       29.97F
BRECKENRIDGE   NOT AVBL
COMANCHE       SUNNY     93  60  33 SE10      30.02F
$$

CENTRAL AND SOUTH CENTRAL TEXAS

CITY           SKY/WX    TMP DP  RH WIND       PRES   REMARKS
AUSTIN/BERGSTM CLOUDY    90  72  55 CALM      29.98F
WACO           SUNNY     92  70  48 S7        29.99F
HILLSBORO      PTCLDY    91  70  49 SW3       29.99F
TEMPLE         SUNNY     93  70  46 S10       30.00F
KILLEEN-GRAY   MOSUNNY   89  69  51 E6        29.99F
FORT HOOD      SUNNY     90  70  51 SE8       29.98F
GEORGETOWN     PTSUNNY   91  66  43 S3        30.00F
LAGO VISTA     FAIR      89  67  48 SE5       30.03F
SAN MARCOS     CLOUDY    88  72  58 SE6       30.01F
NEW BRAUNFELS  CLOUDY    88  72  58 SE6       29.98F
RANDOLPH AFB   CLOUDY    89  73  59 E6        29.99F
SAN ANTONIO    CLOUDY    88  70  55 E7        29.99F
STINSON        PTSUNNY   93  72  50 E10       29.97F
PLEASANTON     NOT AVBL
LA GRANGE      CLOUDY    93  76  57 CALM      29.96F
GIDDINGS       NOT AVBL
$$

EAST TEXAS

CITY           SKY/WX    TMP DP  RH WIND       PRES   REMARKS
PARIS          SUNNY     93  72  49 S9        30.01S
CLARKSVILLE    NOT AVBL
TYLER          SUNNY     91  71  51 W6        30.00F
LONGVIEW       MOSUNNY   90  72  55 W6        29.99S
PALESTINE      CLOUDY    90  73  56 W3        30.01F
NACOGDOCHES    PTSUNNY  N/A N/A N/A NE3       29.98S
$$

TEXAS HILL COUNTRY AND EDWARDS PLATEAU

CITY           SKY/WX    TMP DP  RH WIND       PRES   REMARKS
LLANO          NOT AVBL
HORSESHOE BAY  FAIR      92  62  37 SE6       30.01F
KERRVILLE      SUNNY     92  67  44 S10G17    30.04F
FREDERICKSBRG  NOT AVBL
ROCKSPRINGS    CLEAR     90  61  37 SE12      30.08F
HONDO          SUNNY     91  68  46 VRB3      30.00F
UVALDE         CLEAR     91  65  42 E10G16    29.99F
DEL RIO        MOSUNNY   91  64  40 SE12G21   29.95F
$$

SOUTHEAST TEXAS

CITY           SKY/WX    TMP DP  RH WIND       PRES   REMARKS
COLLEGE STN    MOSUNNY   91  71  51 SW5       29.97F
CALDWELL       NOT AVBL
CROCKETT       NOT AVBL
BRENHAM        NOT AVBL
HUNTSVILLE     CLOUDY    88  74  63 CALM      29.99F
CONROE         CLOUDY    85  75  72 CALM      30.00S
HOUSTON BUSH   CLOUDY    80  77  90 S6        29.99F
HOUSTON HOBBY  CLOUDY    79  72  79 S6        29.99R
PERLAND        PTSUNNY   78  72  81 SW5       30.01F
WHARTON        CLOUDY    82  73  73 S8        30.01R
$$

THE UPPER TEXAS COAST

CITY           SKY/WX    TMP DP  RH WIND       PRES   REMARKS
ORANGE         PTCLDY    91  69  48 SE6       30.01R
PORT ARTHUR    MOSUNNY   91  76  61 VRB7      29.99S
GALVESTON      MOSUNNY   88  78  72 SE9       30.00F
ANGLETON       CLOUDY    82  70  66 N15G25    30.01R
BAY CITY       RAIN      76  73  88 W9        30.02R
$$

TEXAS COASTAL BEND, RIO GRANDE PLAINS DEEP SOUTH TEXAS

CITY           SKY/WX    TMP DP  RH WIND       PRES   REMARKS
VICTORIA       PTSUNNY   89  70  53 E17G28    29.97F
BEEVILLE       MOCLDY    92  78  65 E6        29.98S
ROCKPORT       SUNNY     90  74  59 SE13      29.97F
PORT ARANSAS   CLEAR     89  76  66 E7        29.97F
PORT LAVACA    CLEAR     89  79  71 E10       29.97F
CORPUS CHRISTI MOSUNNY   94  72  48 E14G21    29.95F
KINGSVILLE NAS MOSUNNY   92  75  57 SE13G20   29.94F
COTULLA        MOSUNNY   96  66  37 SE9       29.95F
LAREDO         SUNNY     96  63  33 E10       29.93F
BROWNSVILLE    MOSUNNY   93  75  55 E17       29.94F
PORT ISABEL    SUNNY     91  76  61 E15       29.94F
HEBBRONVILLE   NOT AVBL
MCALLEN        CLOUDY   103  67  31 E14       29.90F
WESLACO        MOSUNNY  N/A N/A N/A E13G23    29.91F
FALFURRIAS     PTCLDY    95  71  45 E13       29.93S
EDINBURG       MOCLDY    95  68  40 E17G23    29.91F
$$



USA.gov is the U.S. government's official web portal to all federal, state and local government web resources and services.